Dades meteomassalio
Diari Summary for Gener 29, 2017 Units:  English    Metric   Both
« Previous Day
Next Day »
Diari Semanal Mensual Anual Personalitzat
  Maxima: Minima: Mijana:
Temperatura: TemperatureC °F 0.8 °F 7.2 °F
Rosada: DewpointC °F -0.6 °F 3 °F
Humitat: Humidity % 50 % 76 %
Velocitat del vent: WindSpeedKMH mph 0.0 mph 1.3 mph
Racha vent: WindSpeedGustKMH mph - -
Vent:- - West
Pressio: PressurehPa in 1022.9 in -
Pluja: 0.0 in    
Historical Graphs
 
 
Tabular Data for Gener 29, 2017
Time Temperature Dew Point Pressure Wind Wind Speed Wind Gust Humidity Rainfall Rate (Hourly) solar Conditions
TemperatureC °F DewpointC °F PressurehPa in Calm     Humidity % HourlyPrecipMM in SolarRadiationWatts/m^2 W/m2 Conditions
00:02 7.3 °F 1.9 °F 1026.0 in West 18.5 mph 18.5 mph 69 % 0.0 in 0.0 W/m2 RA
00:07 7.3 °F 1.8 °F 1026.0 in West 18.5 mph 18.5 mph 68 % 0.0 in 0.0 W/m2 CLR
00:12 7.4 °F 1.9 °F 1026.0 in West 18.5 mph 18.5 mph 68 % 0.0 in 0.0 W/m2 CLR
00:17 7.4 °F 1.9 °F 1026.0 in West 20.4 mph 20.4 mph 68 % 0.0 in 0.0 W/m2 CLR
00:22 7.4 °F 1.9 °F 1026.0 in West 19.3 mph 19.3 mph 68 % 0.0 in 0.0 W/m2 CLR
00:27 7.4 °F 1.7 °F 1026.0 in West 18.5 mph 18.5 mph 67 % 0.0 in 0.0 W/m2 CLR
00:32 7.4 °F 1.7 °F 1026.0 in West 18.5 mph 18.5 mph 67 % 0.0 in 0.0 W/m2 CLR
00:37 7.4 °F 1.7 °F 1026.0 in West 20.9 mph 20.9 mph 67 % 0.0 in 0.0 W/m2 CLR
00:42 7.5 °F 1.8 °F 1026.0 in West 18.5 mph 18.5 mph 67 % 0.0 in 0.0 W/m2 CLR
00:47 7.4 °F 1.7 °F 1026.0 in West 13.0 mph 13.0 mph 67 % 0.0 in 0.0 W/m2 CLR
00:52 7.4 °F 1.7 °F 1026.0 in West 18.5 mph 18.5 mph 67 % 0.0 in 0.0 W/m2 CLR
00:57 7.4 °F 1.7 °F 1026.0 in West 16.7 mph 16.7 mph 67 % 0.0 in 0.0 W/m2 CLR
01:02 7.4 °F 1.7 °F 1026.0 in West 11.1 mph 11.1 mph 67 % 0.0 in 0.0 W/m2 CLR
01:07 7.1 °F 1.6 °F 1026.0 in Calm     68 % 0.0 in 0.0 W/m2 CLR
01:12 6.4 °F 1.3 °F 1026.0 in Calm     70 % 0.0 in 0.0 W/m2 CLR
01:17 6.0 °F 1.3 °F 1026.0 in WSW 7.4 mph 7.4 mph 72 % 0.0 in 0.0 W/m2 CLR
01:22 6.1 °F 1.4 °F 1026.0 in Calm     72 % 0.0 in 0.0 W/m2 CLR
01:27 5.6 °F 1.1 °F 1026.0 in WSW 7.4 mph 7.4 mph 73 % 0.0 in 0.0 W/m2 CLR
01:32 5.2 °F 1.1 °F 1026.0 in WSW 13.0 mph 13.0 mph 75 % 0.0 in 0.0 W/m2 CLR
01:37 5.2 °F 1.3 °F 1026.0 in WSW 13.0 mph 13.0 mph 76 % 0.0 in 0.0 W/m2 CLR
01:42 5.5 °F 1.4 °F 1026.0 in West 13.0 mph 13.0 mph 75 % 0.0 in 0.0 W/m2 CLR
01:47 5.8 °F 1.4 °F 1026.0 in WSW 9.7 mph 9.7 mph 73 % 0.0 in 0.0 W/m2 CLR
01:52 5.9 °F 1.3 °F 1026.0 in WSW 7.4 mph 7.4 mph 72 % 0.0 in 0.0 W/m2 CLR
01:57 5.8 °F 1.3 °F 1026.0 in Calm     73 % 0.0 in 0.0 W/m2 CLR
02:02 5.5 °F 1.2 °F 1026.0 in Calm     74 % 0.0 in 0.0 W/m2 CLR
02:07 5.2 °F 1.2 °F 1026.0 in Calm     75 % 0.0 in 0.0 W/m2 CLR
02:12 4.9 °F 1.0 °F 1026.0 in Calm     76 % 0.0 in 0.0 W/m2 CLR
02:17 4.7 °F 0.8 °F 1026.0 in Calm     76 % 0.0 in 0.0 W/m2 CLR
02:22 4.6 °F 0.9 °F 1026.0 in Calm     77 % 0.0 in 0.0 W/m2 CLR
02:27 4.5 °F 0.8 °F 1026.0 in Calm     77 % 0.0 in 0.0 W/m2 CLR
02:32 4.4 °F 0.9 °F 1026.0 in Calm     78 % 0.0 in 0.0 W/m2 CLR
02:37 4.2 °F 0.7 °F 1026.0 in Calm     78 % 0.0 in 0.0 W/m2 CLR
02:43 4.1 °F 0.7 °F 1026.0 in Calm     79 % 0.0 in 0.0 W/m2 CLR
02:48 4.0 °F 0.7 °F 1026.3 in Calm     79 % 0.0 in 0.0 W/m2 CLR
02:53 3.9 °F 0.8 °F 1026.3 in Calm     80 % 0.0 in 0.0 W/m2 CLR
02:58 3.8 °F 0.7 °F 1026.3 in Calm     80 % 0.0 in 0.0 W/m2 CLR
03:03 3.7 °F 0.6 °F 1026.3 in Calm     80 % 0.0 in 0.0 W/m2 CLR
03:08 3.6 °F 0.5 °F 1026.0 in Calm     80 % 0.0 in 0.0 W/m2 CLR
03:13 3.5 °F 0.6 °F 1026.3 in Calm     81 % 0.0 in 0.0 W/m2 CLR
03:18 3.4 °F 0.7 °F 1026.3 in Calm     82 % 0.0 in 0.0 W/m2 CLR
03:23 3.4 °F 0.6 °F 1026.3 in Calm     82 % 0.0 in 0.0 W/m2 CLR
03:28 3.3 °F 0.5 °F 1026.3 in Calm     82 % 0.0 in 0.0 W/m2 CLR
03:33 3.1 °F 0.5 °F 1026.3 in Calm     83 % 0.0 in 0.0 W/m2 CLR
03:38 3.1 °F 0.4 °F 1026.3 in Calm     83 % 0.0 in 0.0 W/m2 CLR
03:43 3.0 °F 0.4 °F 1026.3 in Calm     83 % 0.0 in 0.0 W/m2 CLR
03:48 3.0 °F 0.4 °F 1026.3 in Calm     83 % 0.0 in 0.0 W/m2 CLR
03:53 2.9 °F 0.5 °F 1026.3 in Calm     84 % 0.0 in 0.0 W/m2 CLR
03:58 2.9 °F 0.5 °F 1026.3 in Calm     84 % 0.0 in 0.0 W/m2 CLR
04:03 2.8 °F 0.2 °F 1026.3 in Calm     83 % 0.0 in 0.0 W/m2 CLR
04:08 2.7 °F 0.2 °F 1026.3 in Calm     84 % 0.0 in 0.0 W/m2 CLR
04:13 2.6 °F 0.1 °F 1026.3 in Calm     84 % 0.0 in 0.0 W/m2 CLR
04:18 2.4 °F 0.2 °F 1026.3 in Calm     85 % 0.0 in 0.0 W/m2 CLR
04:23 2.4 °F 0.1 °F 1026.3 in Calm     85 % 0.0 in 0.0 W/m2 CLR
04:28 2.3 °F 0.0 °F 1026.3 in Calm     85 % 0.0 in 0.0 W/m2 CLR
04:33 2.1 °F 0.0 °F 1026.3 in Calm     86 % 0.0 in 0.0 W/m2 CLR
04:38 2.0 °F -0.1 °F 1026.3 in Calm     86 % 0.0 in 0.0 W/m2 CLR
04:43 2.0 °F 0.1 °F 1026.3 in Calm     87 % 0.0 in 0.0 W/m2 CLR
04:48 1.9 °F 0.0 °F 1026.6 in Calm     87 % 0.0 in 0.0 W/m2 CLR
04:53 1.9 °F 0.0 °F 1026.6 in Calm     87 % 0.0 in 0.0 W/m2 CLR
04:58 1.9 °F 0.2 °F 1026.6 in Calm     88 % 0.0 in 0.0 W/m2 CLR
05:03 1.9 °F 0.0 °F 1026.6 in Calm     87 % 0.0 in 0.0 W/m2 CLR
05:08 1.9 °F 0.1 °F 1026.6 in Calm     88 % 0.0 in 0.0 W/m2 CLR
05:13 1.9 °F 0.1 °F 1026.6 in Calm     88 % 0.0 in 0.0 W/m2 CLR
05:18 1.9 °F 0.1 °F 1026.6 in Calm     88 % 0.0 in 0.0 W/m2 CLR
05:23 1.9 °F 0.1 °F 1026.6 in Calm     88 % 0.0 in 0.0 W/m2 CLR
05:28 1.8 °F 0.1 °F 1026.6 in Calm     88 % 0.0 in 0.0 W/m2 CLR
05:33 1.8 °F 0.1 °F 1026.6 in Calm     88 % 0.0 in 0.0 W/m2 CLR
05:38 1.9 °F 0.3 °F 1026.6 in Calm     89 % 0.0 in 0.0 W/m2 CLR
05:43 1.8 °F 0.2 °F 1026.6 in Calm     89 % 0.0 in 0.0 W/m2 CLR
05:48 1.9 °F 0.3 °F 1026.6 in Calm     89 % 0.0 in 0.0 W/m2 CLR
05:53 1.9 °F 0.3 °F 1026.6 in Calm     89 % 0.0 in 0.0 W/m2 CLR
05:58 1.9 °F 0.1 °F 1026.6 in Calm     88 % 0.0 in 0.0 W/m2 CLR
06:03 1.8 °F 0.1 °F 1026.6 in Calm     88 % 0.0 in 0.0 W/m2 CLR
06:08 1.8 °F 0.0 °F 1026.6 in Calm     88 % 0.0 in 0.0 W/m2 CLR
06:13 1.7 °F -0.1 °F 1026.6 in Calm     88 % 0.0 in 0.0 W/m2 CLR
06:18 1.6 °F -0.1 °F 1026.6 in Calm     89 % 0.0 in 0.0 W/m2 CLR
06:23 1.6 °F -0.1 °F 1026.6 in Calm     89 % 0.0 in 0.0 W/m2 CLR
06:28 1.6 °F -0.1 °F 1026.6 in Calm     89 % 0.0 in 0.0 W/m2 CLR
06:33 1.4 °F -0.2 °F 1026.6 in Calm     89 % 0.0 in 0.0 W/m2 CLR
06:38 1.4 °F -0.2 °F 1026.6 in Calm     89 % 0.0 in 0.0 W/m2 CLR
06:43 1.2 °F -0.4 °F 1026.6 in Calm     89 % 0.0 in 0.0 W/m2 CLR
06:48 1.1 °F -0.4 °F 1026.6 in Calm     90 % 0.0 in 0.0 W/m2 CLR
06:53 1.1 °F -0.3 °F 1027.0 in Calm     90 % 0.0 in 0.0 W/m2 CLR
06:58 1.2 °F -0.2 °F 1026.6 in Calm     90 % 0.0 in 0.0 W/m2 CLR
07:03 1.2 °F -0.2 °F 1026.6 in Calm     90 % 0.0 in 0.0 W/m2 CLR
07:08 1.2 °F -0.2 °F 1027.0 in Calm     90 % 0.0 in 0.0 W/m2 CLR
07:13 1.1 °F -0.4 °F 1027.0 in Calm     90 % 0.0 in 0.0 W/m2 CLR
07:18 0.9 °F -0.5 °F 1027.0 in Calm     90 % 0.0 in 0.0 W/m2 CLR
07:23 0.9 °F -0.6 °F 1027.0 in Calm     90 % 0.0 in 0.0 W/m2 CLR
07:28 0.9 °F -0.4 °F 1027.0 in Calm     91 % 0.0 in 0.0 W/m2 CLR
07:33 0.9 °F -0.3 °F 1027.0 in Calm     91 % 0.0 in 0.0 W/m2 CLR
07:38 1.0 °F -0.3 °F 1027.0 in Calm     91 % 0.0 in 0.0 W/m2 CLR
07:43 1.0 °F -0.4 °F 1027.0 in Calm     90 % 0.0 in 0.0 W/m2 CLR
07:48 0.8 °F -0.4 °F 1027.0 in Calm     91 % 0.0 in 0.0 W/m2 CLR
07:53 0.9 °F -0.3 °F 1027.3 in Calm     91 % 0.0 in 0.0 W/m2 CLR
07:58 0.9 °F -0.3 °F 1027.3 in Calm     91 % 0.0 in 0.0 W/m2 CLR
07:59 0.9 °F -0.4 °F 1027.3 in Calm     91 % 0.0 in 0.0 W/m2 CLR
08:04 1.0 °F -0.3 °F 1027.3 in Calm     91 % 0.0 in 5.0 W/m2 OVC
08:09 1.1 °F -0.2 °F 1027.3 in Calm     91 % 0.0 in 11.0 W/m2 OVC
08:14 1.2 °F -0.1 °F 1027.3 in Calm     91 % 0.0 in 12.0 W/m2 OVC
08:19 1.3 °F -0.1 °F 1027.3 in Calm     91 % 0.0 in 16.0 W/m2 BKN
08:24 1.3 °F 0.0 °F 1027.3 in Calm     91 % 0.0 in 21.0 W/m2 BKN
08:29 1.4 °F 0.1 °F 1027.3 in Calm     91 % 0.0 in 25.0 W/m2 BKN
08:34 1.6 °F 0.2 °F 1027.3 in Calm     91 % 0.0 in 26.0 W/m2 BKN
08:39 1.7 °F 0.3 °F 1027.3 in Calm     91 % 0.0 in 32.0 W/m2 BKN
08:44 1.8 °F 0.5 °F 1027.3 in Calm     91 % 0.0 in 40.0 W/m2 BKN
08:49 2.1 °F 0.7 °F 1027.3 in Calm     91 % 0.0 in 37.0 W/m2 BKN
08:54 2.2 °F 0.8 °F 1027.3 in Calm     91 % 0.0 in 39.0 W/m2 BKN
08:59 2.3 °F 0.8 °F 1027.3 in Calm     90 % 0.0 in 37.0 W/m2 BKN
09:04 2.3 °F 0.8 °F 1027.3 in Calm     90 % 0.0 in 39.0 W/m2 BKN
09:09 2.4 °F 0.9 °F 1027.3 in Calm     90 % 0.0 in 44.0 W/m2 BKN
09:14 2.4 °F 0.9 °F 1027.3 in Calm     90 % 0.0 in 53.0 W/m2 BKN
09:19 2.6 °F 1.1 °F 1027.3 in Calm     90 % 0.0 in 58.0 W/m2 SCT
09:24 2.6 °F 1.0 °F 1027.7 in Calm     89 % 0.0 in 65.0 W/m2 SCT
09:29 2.7 °F 1.1 °F 1027.7 in Calm     89 % 0.0 in 76.0 W/m2 SCT
09:34 2.6 °F 1.0 °F 1027.7 in Calm     89 % 0.0 in 83.0 W/m2 FEW
09:39 2.6 °F 0.9 °F 1027.7 in Calm     89 % 0.0 in 84.0 W/m2 FEW
09:44 2.6 °F 1.0 °F 1027.7 in Calm     89 % 0.0 in 88.0 W/m2 FEW
09:49 2.8 °F 1.3 °F 1027.7 in Calm     90 % 0.0 in 114.0 W/m2 CLR
09:54 2.8 °F 1.3 °F 1027.7 in Calm     90 % 0.0 in 113.0 W/m2 CLR
09:59 2.9 °F 1.4 °F 1027.7 in Calm     90 % 0.0 in 141.0 W/m2 CLR
10:04 3.3 °F 1.9 °F 1027.7 in Calm     91 % 0.0 in 144.0 W/m2 CLR
10:09 3.6 °F 2.1 °F 1027.7 in Calm     90 % 0.0 in 158.0 W/m2 CLR
10:14 3.9 °F 2.2 °F 1027.3 in Calm     89 % 0.0 in 162.0 W/m2 CLR
10:19 4.2 °F 2.3 °F 1027.3 in Calm     88 % 0.0 in 186.0 W/m2 CLR
10:24 4.4 °F 2.4 °F 1027.3 in Calm     87 % 0.0 in 163.0 W/m2 CLR
10:29 4.7 °F 2.5 °F 1027.3 in Calm     86 % 0.0 in 141.0 W/m2 CLR
10:34 4.9 °F 2.7 °F 1027.3 in Calm     86 % 0.0 in 125.0 W/m2 CLR
10:39 5.1 °F 2.9 °F 1027.3 in Calm     86 % 0.0 in 155.0 W/m2 CLR
10:45 5.3 °F 2.9 °F 1027.3 in Calm     85 % 0.0 in 178.0 W/m2 CLR
10:50 5.5 °F 3.2 °F 1027.3 in Calm     85 % 0.0 in 185.0 W/m2 CLR
10:55 5.7 °F 3.3 °F 1027.3 in Calm     85 % 0.0 in 199.0 W/m2 CLR
11:00 5.8 °F 3.3 °F 1027.3 in Calm     84 % 0.0 in 193.0 W/m2 CLR
11:05 6.1 °F 3.6 °F 1027.3 in Calm     84 % 0.0 in 181.0 W/m2 CLR
11:10 6.3 °F 3.7 °F 1027.3 in Calm     83 % 0.0 in 181.0 W/m2 CLR
11:15 6.6 °F 3.9 °F 1027.3 in Calm     83 % 0.0 in 190.0 W/m2 CLR
11:20 6.8 °F 4.0 °F 1027.3 in Calm     82 % 0.0 in 248.0 W/m2 CLR
11:25 7.1 °F 4.2 °F 1027.0 in Calm     82 % 0.0 in 309.0 W/m2 CLR
11:30 7.4 °F 4.4 °F 1027.0 in Calm     81 % 0.0 in 411.0 W/m2 CLR
11:35 7.9 °F 4.7 °F 1027.0 in Calm     80 % 0.0 in 510.0 W/m2 CLR
11:40 8.4 °F 4.6 °F 1027.0 in Calm     77 % 0.0 in 396.0 W/m2 CLR
11:45 8.7 °F 4.9 °F 1027.0 in Calm     77 % 0.0 in 334.0 W/m2 CLR
11:50 9.1 °F 5.1 °F 1027.0 in Calm     76 % 0.0 in 264.0 W/m2 CLR
11:55 9.3 °F 5.1 °F 1027.0 in Calm     75 % 0.0 in 308.0 W/m2 CLR
12:00 9.8 °F 5.4 °F 1027.0 in Calm     74 % 0.0 in 612.0 W/m2 CLR
12:05 10.3 °F 5.2 °F 1026.6 in Calm     71 % 0.0 in 575.0 W/m2 CLR
12:10 10.8 °F 5.7 °F 1026.6 in Calm     71 % 0.0 in 374.0 W/m2 CLR
12:15 11.1 °F 4.9 °F 1026.3 in Calm     66 % 0.0 in 338.0 W/m2 CLR
12:20 11.2 °F 4.8 °F 1026.3 in Calm     65 % 0.0 in 383.0 W/m2 CLR
12:25 11.3 °F 5.0 °F 1026.3 in Calm     65 % 0.0 in 380.0 W/m2 CLR
12:30 11.7 °F 5.3 °F 1026.0 in Calm     65 % 0.0 in 445.0 W/m2 CLR
12:35 11.8 °F 4.8 °F 1026.0 in Calm     62 % 0.0 in 575.0 W/m2 CLR
12:40 11.9 °F 5.1 °F 1026.0 in Calm     63 % 0.0 in 629.0 W/m2 CLR
12:45 12.1 °F 5.3 °F 1025.6 in Calm     63 % 0.0 in 471.0 W/m2 CLR
12:50 12.3 °F 5.0 °F 1025.6 in SE 5.6 mph 5.6 mph 61 % 0.0 in 448.0 W/m2 CLR
12:55 12.3 °F 5.0 °F 1025.6 in NW 7.4 mph 7.4 mph 61 % 0.0 in 287.0 W/m2 CLR
13:00 12.1 °F 4.8 °F 1025.6 in Calm     61 % 0.0 in 278.0 W/m2 CLR
13:05 12.1 °F 4.8 °F 1025.3 in NW 3.7 mph 3.7 mph 61 % 0.0 in 313.0 W/m2 CLR
13:10 12.2 °F 5.3 °F 1025.3 in NW 5.6 mph 5.6 mph 63 % 0.0 in 320.0 W/m2 CLR
13:15 12.1 °F 5.3 °F 1025.3 in NNW 9.3 mph 9.3 mph 63 % 0.0 in 304.0 W/m2 CLR
13:20 12.0 °F 4.9 °F 1025.3 in NNW 5.6 mph 5.6 mph 62 % 0.0 in 272.0 W/m2 CLR
13:25 11.9 °F 5.1 °F 1025.3 in North 5.6 mph 5.6 mph 63 % 0.0 in 455.0 W/m2 CLR
13:30 12.1 °F 5.9 °F 1024.9 in Calm     66 % 0.0 in 596.0 W/m2 CLR
13:35 12.2 °F 5.2 °F 1024.9 in Calm     62 % 0.0 in 455.0 W/m2 CLR
13:40 12.3 °F 5.0 °F 1024.9 in Calm     61 % 0.0 in 545.0 W/m2 CLR
13:45 12.4 °F 5.1 °F 1024.9 in North 11.1 mph 11.1 mph 61 % 0.0 in 550.0 W/m2 CLR
13:50 12.6 °F 5.7 °F 1024.9 in Calm     63 % 0.0 in 510.0 W/m2 CLR
13:55 12.6 °F 5.1 °F 1024.6 in Calm     60 % 0.0 in 499.0 W/m2 CLR
14:00 12.9 °F 5.8 °F 1024.6 in Calm     62 % 0.0 in 504.0 W/m2 CLR
14:05 13.2 °F 5.6 °F 1024.6 in Calm     60 % 0.0 in 531.0 W/m2 CLR
14:10 13.4 °F 5.6 °F 1024.6 in Calm     59 % 0.0 in 540.0 W/m2 CLR
14:15 13.7 °F 5.1 °F 1024.3 in Calm     56 % 0.0 in 527.0 W/m2 CLR
14:20 13.9 °F 4.7 °F 1024.3 in Calm     54 % 0.0 in 443.0 W/m2 CLR
14:25 13.9 °F 4.5 °F 1024.3 in WNW 5.6 mph 5.6 mph 53 % 0.0 in 517.0 W/m2 CLR
14:30 13.7 °F 5.1 °F 1023.9 in Calm     56 % 0.0 in 490.0 W/m2 CLR
14:35 13.8 °F 4.6 °F 1023.9 in NW 3.7 mph   54 % 0.0 in 376.0 W/m2 CLR
14:40 14.0 °F 5.3 °F 1023.9 in Calm     56 % 0.0 in 274.0 W/m2 CLR
14:45 13.9 °F 4.4 °F 1023.9 in Calm     53 % 0.0 in 504.0 W/m2 CLR
14:50 14.0 °F 4.6 °F 1023.6 in Calm     53 % 0.0 in 510.0 W/m2 CLR
14:55 14.1 °F 4.9 °F 1023.6 in Calm     54 % 0.0 in 443.0 W/m2 CLR
15:00 13.9 °F 4.2 °F 1023.6 in Calm     52 % 0.0 in 243.0 W/m2 CLR
15:05 13.7 °F 4.3 °F 1023.6 in Calm     53 % 0.0 in 232.0 W/m2 CLR
15:10 13.6 °F 4.2 °F 1023.6 in Calm     53 % 0.0 in 218.0 W/m2 CLR
15:15 13.7 °F 4.1 °F 1023.6 in Calm     52 % 0.0 in 234.0 W/m2 CLR
15:20 13.9 °F 4.8 °F 1023.6 in Calm     54 % 0.0 in 295.0 W/m2 CLR
15:25 14.1 °F 4.3 °F 1023.6 in Calm     52 % 0.0 in 230.0 W/m2 CLR
15:30 14.1 °F 4.1 °F 1023.6 in Calm     51 % 0.0 in 111.0 W/m2 CLR
15:35 14.1 °F 3.8 °F 1023.6 in Calm     50 % 0.0 in 95.0 W/m2 CLR
15:40 14.0 °F 4.3 °F 1023.6 in Calm     52 % 0.0 in 118.0 W/m2 CLR
15:45 13.8 °F 3.8 °F 1023.6 in Calm     51 % 0.0 in 169.0 W/m2 CLR
15:50 13.8 °F 4.1 °F 1023.6 in Calm     52 % 0.0 in 114.0 W/m2 CLR
15:55 13.7 °F 4.3 °F 1023.6 in Calm     53 % 0.0 in 109.0 W/m2 CLR
16:00 13.5 °F 4.1 °F 1023.6 in Calm     53 % 0.0 in 151.0 W/m2 CLR
16:05 13.4 °F 4.0 °F 1023.2 in Calm     53 % 0.0 in 153.0 W/m2 CLR
16:10 13.3 °F 3.9 °F 1023.2 in Calm     53 % 0.0 in 130.0 W/m2 CLR
16:15 13.2 °F 3.8 °F 1023.2 in Calm     53 % 0.0 in 121.0 W/m2 CLR
16:20 13.2 °F 3.8 °F 1023.2 in Calm     53 % 0.0 in 91.0 W/m2 CLR
16:25 13.2 °F 4.1 °F 1023.2 in Calm     54 % 0.0 in 79.0 W/m2 CLR
16:30 13.3 °F 4.7 °F 1023.2 in Calm     56 % 0.0 in 211.0 W/m2 CLR
16:35 13.4 °F 5.3 °F 1023.2 in Calm     58 % 0.0 in 229.0 W/m2 CLR
16:40 13.5 °F 5.2 °F 1023.2 in Calm     57 % 0.0 in 197.0 W/m2 CLR
16:45 13.5 °F 5.2 °F 1023.2 in NE 3.2 mph 3.2 mph 57 % 0.0 in 188.0 W/m2 CLR
16:50 13.4 °F 5.3 °F 1023.2 in Calm     58 % 0.0 in 171.0 W/m2 CLR
16:55 13.3 °F 5.5 °F 1023.2 in Calm     59 % 0.0 in 155.0 W/m2 CLR
17:00 13.3 °F 5.4 °F 1023.2 in Calm     59 % 0.0 in 141.0 W/m2 CLR
17:05 13.3 °F 5.7 °F 1023.2 in Calm     60 % 0.0 in 123.0 W/m2 CLR
17:11 13.2 °F 5.4 °F 1023.2 in Calm     59 % 0.0 in 105.0 W/m2 CLR
17:16 13.2 °F 5.1 °F 1023.2 in Calm     58 % 0.0 in 72.0 W/m2 CLR
17:21 13.2 °F 4.9 °F 1022.9 in Calm     57 % 0.0 in 39.0 W/m2 BKN
17:26 13.1 °F 4.5 °F 1023.2 in Calm     56 % 0.0 in 21.0 W/m2 BKN
17:31 12.9 °F 4.9 °F 1023.2 in Calm     58 % 0.0 in 32.0 W/m2 BKN
17:36 12.8 °F 4.9 °F 1023.2 in Calm     59 % 0.0 in 19.0 W/m2 BKN
17:41 12.6 °F 5.0 °F 1023.2 in Calm     60 % 0.0 in 16.0 W/m2 BKN
17:46 12.4 °F 4.8 °F 1023.2 in Calm     60 % 0.0 in 12.0 W/m2 BKN
17:51 12.3 °F 4.9 °F 1023.2 in Calm     61 % 0.0 in 9.0 W/m2 BKN
17:56 12.1 °F 4.8 °F 1023.2 in Calm     61 % 0.0 in 9.0 W/m2 BKN
18:01 11.9 °F 4.9 °F 1023.2 in Calm     62 % 0.0 in 7.0 W/m2 BKN
18:06 11.8 °F 4.9 °F 1023.2 in Calm     63 % 0.0 in 7.0 W/m2 BKN
18:11 11.6 °F 5.0 °F 1023.2 in Calm     64 % 0.0 in 0.0 W/m2 OVC
18:16 11.4 °F 4.9 °F 1023.2 in Calm     64 % 0.0 in 0.0 W/m2 OVC
18:21 11.3 °F 5.0 °F 1023.2 in Calm     65 % 0.0 in 0.0 W/m2 OVC
18:26 11.2 °F 5.1 °F 1023.2 in Calm     66 % 0.0 in 0.0 W/m2 CLR
18:31 10.9 °F 5.0 °F 1023.2 in Calm     67 % 0.0 in 0.0 W/m2 CLR
18:36 10.7 °F 5.1 °F 1023.6 in Calm     68 % 0.0 in 0.0 W/m2 CLR
18:41 10.7 °F 5.2 °F 1023.6 in Calm     69 % 0.0 in 0.0 W/m2 CLR
18:46 10.5 °F 5.1 °F 1023.6 in Calm     69 % 0.0 in 0.0 W/m2 CLR
18:51 10.4 °F 5.2 °F 1023.6 in Calm     70 % 0.0 in 0.0 W/m2 CLR
18:56 10.2 °F 5.3 °F 1023.2 in Calm     72 % 0.0 in 0.0 W/m2 CLR
19:01 9.7 °F 5.1 °F 1023.6 in Calm     73 % 0.0 in 0.0 W/m2 CLR
19:06 9.5 °F 5.1 °F 1023.6 in Calm     74 % 0.0 in 0.0 W/m2 CLR
19:11 9.5 °F 5.1 °F 1023.6 in Calm     74 % 0.0 in 0.0 W/m2 CLR
19:16 9.4 °F 5.2 °F 1023.6 in Calm     75 % 0.0 in 0.0 W/m2 CLR
19:21 9.3 °F 5.1 °F 1023.9 in Calm     75 % 0.0 in 0.0 W/m2 CLR
19:26 9.0 °F 5.2 °F 1023.9 in Calm     77 % 0.0 in 0.0 W/m2 CLR
19:31 8.7 °F 5.1 °F 1023.9 in Calm     78 % 0.0 in 0.0 W/m2 CLR
19:36 8.6 °F 5.1 °F 1023.9 in Calm     79 % 0.0 in 0.0 W/m2 CLR
19:41 8.5 °F 5.2 °F 1023.9 in Calm     80 % 0.0 in 0.0 W/m2 CLR
19:46 8.5 °F 5.2 °F 1023.9 in Calm     80 % 0.0 in 0.0 W/m2 CLR
19:51 8.4 °F 5.1 °F 1023.9 in Calm     80 % 0.0 in 0.0 W/m2 CLR
19:56 8.3 °F 5.2 °F 1023.9 in Calm     81 % 0.0 in 0.0 W/m2 CLR
20:01 8.2 °F 5.1 °F 1023.9 in Calm     81 % 0.0 in 0.0 W/m2 CLR
20:06 8.2 °F 5.1 °F 1024.3 in Calm     81 % 0.0 in 0.0 W/m2 CLR
20:11 8.1 °F 5.2 °F 1024.3 in Calm     82 % 0.0 in 0.0 W/m2 CLR
20:16 8.1 °F 5.2 °F 1024.3 in Calm     82 % 0.0 in 0.0 W/m2 CLR
20:21 8.2 °F 5.3 °F 1024.3 in Calm     82 % 0.0 in 0.0 W/m2 CLR
20:22 8.1 °F 5.4 °F 1024.3 in Calm     83 % 0.0 in 0.0 W/m2 CLR
20:27 8.1 °F 5.4 °F 1024.3 in Calm     83 % 0.0 in 0.0 W/m2 CLR
20:32 8.1 °F 5.4 °F 1024.3 in Calm     83 % 0.0 in 0.0 W/m2 CLR
20:37 8.0 °F 5.3 °F 1024.3 in Calm     83 % 0.0 in 0.0 W/m2 CLR
20:42 7.9 °F 5.2 °F 1024.3 in Calm     83 % 0.0 in 0.0 W/m2 CLR
20:47 7.9 °F 5.4 °F 1024.3 in Calm     84 % 0.0 in 0.0 W/m2 CLR
20:52 7.9 °F 5.4 °F 1024.6 in Calm     84 % 0.0 in 0.0 W/m2 CLR
20:57 8.0 °F 5.4 °F 1024.6 in Calm     84 % 0.0 in 0.0 W/m2 CLR
21:02 8.1 °F 5.5 °F 1024.6 in Calm     84 % 0.0 in 0.0 W/m2 CLR
21:07 8.0 °F 5.4 °F 1024.6 in Calm     84 % 0.0 in 0.0 W/m2 CLR
21:12 8.0 °F 5.4 °F 1024.6 in Calm     84 % 0.0 in 0.0 W/m2 CLR
21:17 7.9 °F 5.4 °F 1024.6 in Calm     84 % 0.0 in 0.0 W/m2 CLR
21:22 7.9 °F 5.2 °F 1024.6 in Calm     83 % 0.0 in 0.0 W/m2 CLR
21:27 7.9 °F 5.3 °F 1024.6 in Calm     84 % 0.0 in 0.0 W/m2 CLR
21:33 7.8 °F 5.4 °F 1024.6 in Calm     85 % 0.0 in 0.0 W/m2 CLR
21:38 7.9 °F 5.5 °F 1024.9 in Calm     85 % 0.0 in 0.0 W/m2 CLR
21:43 7.9 °F 5.6 °F 1024.9 in Calm     85 % 0.0 in 0.0 W/m2 CLR
21:48 7.9 °F 5.6 °F 1024.6 in Calm     85 % 0.0 in 0.0 W/m2 CLR
21:53 7.9 °F 5.4 °F 1024.9 in Calm     84 % 0.0 in 0.0 W/m2 CLR
21:58 7.9 °F 5.3 °F 1024.6 in Calm     84 % 0.0 in 0.0 W/m2 CLR
22:03 7.9 °F 5.3 °F 1024.9 in Calm     84 % 0.0 in 0.0 W/m2 CLR
22:08 7.9 °F 5.5 °F 1024.9 in Calm     85 % 0.0 in 0.0 W/m2 CLR
22:13 7.9 °F 5.5 °F 1024.9 in Calm     85 % 0.0 in 0.0 W/m2 CLR
22:18 7.8 °F 5.4 °F 1024.6 in Calm     85 % 0.0 in 0.0 W/m2 CLR
22:23 7.8 °F 5.4 °F 1024.6 in Calm     85 % 0.0 in 0.0 W/m2 CLR
22:28 7.8 °F 5.4 °F 1024.6 in Calm     85 % 0.0 in 0.0 W/m2 CLR
22:33 7.7 °F 5.3 °F 1024.6 in Calm     85 % 0.0 in 0.0 W/m2 CLR
22:38 7.7 °F 5.3 °F 1024.6 in Calm     85 % 0.0 in 0.0 W/m2 CLR
22:43 7.7 °F 5.3 °F 1024.6 in Calm     85 % 0.0 in 0.0 W/m2 CLR
22:48 7.7 °F 5.3 °F 1024.6 in Calm     85 % 0.0 in 0.0 W/m2 CLR
22:53 7.7 °F 5.3 °F 1024.6 in Calm     85 % 0.0 in 0.0 W/m2 CLR
22:58 7.6 °F 5.2 °F 1024.6 in Calm     85 % 0.0 in 0.0 W/m2 CLR
23:03 7.6 °F 5.2 °F 1024.6 in Calm     85 % 0.0 in 0.0 W/m2 CLR
23:08 7.6 °F 5.2 °F 1024.6 in Calm     85 % 0.0 in 0.0 W/m2 CLR
23:13 7.5 °F 5.2 °F 1024.6 in Calm     85 % 0.0 in 0.0 W/m2 CLR
23:18 7.5 °F 5.3 °F 1024.6 in Calm     86 % 0.0 in 0.0 W/m2 CLR
23:23 7.6 °F 5.2 °F 1024.6 in Calm     85 % 0.0 in 0.0 W/m2 CLR
23:28 7.7 °F 5.3 °F 1024.6 in Calm     85 % 0.0 in 0.0 W/m2 CLR
23:33 7.7 °F 5.3 °F 1024.6 in Calm     85 % 0.0 in 0.0 W/m2 CLR
23:38 7.8 °F 5.4 °F 1024.9 in Calm     85 % 0.0 in 0.0 W/m2 CLR
23:43 7.8 °F 5.4 °F 1024.6 in Calm     85 % 0.0 in 0.0 W/m2 CLR
23:48 7.9 °F 5.3 °F 1024.6 in Calm     84 % 0.0 in 0.0 W/m2 CLR
23:53 7.9 °F 5.3 °F 1024.9 in Calm     84 % 0.0 in 0.0 W/m2 CLR
23:58 7.8 °F 5.4 °F 1024.6 in Calm     85 % 0.0 in 0.0 W/m2 CLR
Lo Temps de Massalio
Compliments of Weather Underground - 1.25 mb